Flag for U.S.A. Weather past 2 weeks in Akron, Ohio, U.S.A.

Now
79 °F

Sunny.


Feels Like: 81 °F
Forecast: 68 / 88 °F
Wind: 5 mph from Northeast

Location: Akron Fulton International Airport

Current Time: Aug 31, 2015 at 10:03:11 PM

Latest Report: Aug 31, 2015 at 8:54 PM


Visibility: 10 mi

Pressure: 30.05 "Hg

Humidity: 65%

Dew point: 66 °F

Location of AkronLocation

Historic Weather in Akron — Graph

°F

Akron temperature yesterday

Maximum temperature yesterday: 84 °F (at 4:54 PM)
Minimum temperature yesterday: 68 °F (at 6:54 AM)
Average temperature yesterday: 75 °F

Past Weeks' High & Low Weather Summary

 TemperatureHumidityPressure
High91 °F (Aug 17, 2:54 PM)93% (Aug 28, 1:54 AM)30.21 "Hg (Aug 28, 1:54 AM)
Low51 °F (Aug 28, 6:54 AM)27% (Aug 21, 4:54 PM)29.75 "Hg (Aug 20, 3:54 AM)
Average71 °F65%30.03 "Hg
* Reported Aug 16 8:54 PM — Aug 31 8:54 PM, Akron, Weather by CustomWeather, © 2015

Note: Actual official high and low records may vary slightly from our data, if they occured in-between our weather recording intervals... More about our weather records

Advertising

Akron weather history for previous 24 hours

 ConditionsComfort  
Time TempWeatherWind HumidityBarometerVisibility
8:54 PM
Mon, Aug 31
79 °FSunny.5 mph65%30.05 "Hg10 mi
7:54 PM82 °FSunny.7 mph60%30.03 "Hg10 mi
6:54 PM86 °FSunny.7 mph51%30.03 "Hg10 mi
5:54 PM89 °FSunny.3 mph43%30.02 "Hg10 mi
4:54 PM90 °FScattered clouds.7 mph41%30.03 "Hg10 mi
3:54 PM89 °FPassing clouds.9 mph43%30.04 "Hg10 mi
2:54 PM88 °FSunny.9 mph45%30.06 "Hg10 mi
1:54 PM85 °FPartly sunny.10 mph51%30.07 "Hg10 mi
12:54 PM86 °FBroken clouds.8 mph51%30.08 "Hg10 mi
11:54 AM84 °FSunny.8 mph55%30.09 "Hg10 mi
10:54 AM82 °FSunny.3 mph60%30.09 "Hg10 mi
9:54 AM77 °FSunny.3 mph71%30.09 "Hg10 mi
8:54 AM73 °FSunny.6 mph79%30.08 "Hg10 mi
7:54 AM70 °FSunny.5 mph84%30.08 "Hg8 mi
6:54 AM67 °FClear.No wind90%30.06 "Hg8 mi
5:54 AM69 °FClear.No wind84%30.04 "Hg10 mi
4:54 AM67 °FClear.No wind87%30.04 "Hg10 mi
3:54 AM69 °FPassing clouds.No wind84%30.04 "Hg10 mi
2:54 AM69 °FClear.6 mph84%30.04 "Hg10 mi
1:54 AM71 °FClear.6 mph78%30.05 "Hg10 mi
12:54 AM72 °FClear.6 mph76%30.06 "Hg10 mi
11:54 PM
Sun, Aug 30
74 °FPartly cloudy.9 mph79%30.06 "Hg10 mi
10:54 PM76 °FMostly cloudy.9 mph74%30.06 "Hg10 mi
Weather by CustomWeather, © 2015

See weather overviewHow to use our weather pages